This demonstration page uses our WeatherBlox Daily Observations layout. Learn more.

41.55636, -103.73856

Hourly Observations for May 2, 2015

Temp ( °F °C ) Dew Point ( °F °C ) Humidity (%) Winds ( mph kmh ) Pressure ( in mb ) Visibility ( mi km ) Precip ( " mm )
12:53 am 00:53 Clear 52 11 45 7 77 77 ESE 6 9 29.91 1013 10 16.09344 0 0
1:53 am 01:53 Clear 48 9 45 7 87 87 E 8 13 29.94 1014 10 16.09344 0 0
2:53 am 02:53 Clear 48 9 45 7 87 87 E 8 13 29.91 1013 10 16.09344 0 0
3:53 am 03:53 Clear 46 8 43 6 87 87 E 6 9 29.91 1013 10 16.09344 0 0
4:53 am 04:53 Clear 45 7 43 6 93 93 E 7 11 29.94 1014 10 16.09344 0 0
5:53 am 05:53 Sunny 45 7 41 5 87 87 E 6 9 29.88 1012 10 16.09344 0 0
6:53 am 06:53 Sunny 50 10 45 7 82 82 Calm 29.88 1012 10 16.09344 0 0
7:53 am 07:53 Sunny 55 13 46 8 72 72 Calm 29.85 1011 10 16.09344 0 0
8:53 am 08:53 Sunny 63 17 45 7 52 52 W 10 17 29.74 1007 10 16.09344 0 0
9:53 am 09:53 Sunny 64 18 45 7 49 49 WNW 12 19 29.74 1007 10 16.09344 0 0
10:53 am 10:53 Sunny 72 22 41 5 33 33 WNW 13 20 29.68 1005 10 16.09344 0 0
11:53 am 11:53 Sunny 79 26 34 1 20 20 W 12 19 29.62 1003 10 16.09344 0 0
12:53 pm 12:53 Sunny 81 27 27 -3 14 14 W 13 20 29.59 1002 10 16.09344 0 0
1:53 pm 13:53 Sunny 81 27 28 -2 15 15 WNW 15 24 29.56 1001 10 16.09344 0 0
2:06 pm 14:06 Sunny 82 28 30 -1 15 15 WNW 18 30 29.53 1000 10 16.09344 0 0
2:53 pm 14:53 Sunny 82 28 34 1 17 17 WNW 17 28 29.5 999 10 16.09344 0 0
3:53 pm 15:53 Sunny 82 28 34 1 17 17 W 10 17 29.47 998 10 16.09344 0 0
4:53 pm 16:53 Sunny 82 28 34 1 17 17 WNW 10 17 29.47 998 10 16.09344 0 0
5:53 pm 17:53 Sunny 81 27 34 1 18 18 WNW 8 13 29.47 998 10 16.09344 0 0
6:53 pm 18:53 Sunny 75 24 37 3 25 25 SSW 13 20 29.53 1000 10 16.09344 0 0
7:53 pm 19:53 Mostly Cloudy 70 21 39 4 33 33 SSW 16 26 29.59 1002 10 16.09344 0 0
8:53 pm 20:53 Clear 66 19 39 4 37 37 SW 10 17 29.65 1004 10 16.09344 0 0
9:53 pm 21:53 Clear 63 17 39 4 42 42 WSW 6 9 29.68 1005 10 16.09344 0 0
10:53 pm 22:53 Clear 59 15 43 6 55 55 SW 7 11 29.68 1005 10 16.09344 0 0
11:53 pm 23:53 Clear 61 16 39 4 45 45 Calm 29.71 1006 10 16.09344 0 0

Powered by AerisWeather